Hourly Weather Runowo

Today, 22 April, Thursday

Time Temperature Precipitation Wind Pressure Humidity
00:00 +1°C° 0 mm 6 mps 751 mmHg 73%
01:00 -1°C° 0 mm 6 mps 751 mmHg 75%
02:00 +1°C° 0 mm 6 mps 751 mmHg 74%
03:00 +1°C° 0 mm 6 mps 751 mmHg 74%
04:00 +1°C° 0 mm 6 mps 751 mmHg 73%
05:00 +2°C° 0 mm 7 mps 751 mmHg 72%
06:00 +2°C° 0 mm 7 mps 751 mmHg 72%
07:00 +3°C° 0 mm 7 mps 752 mmHg 71%
08:00 +4°C° 0.1 mm 7 mps 752 mmHg 64%
09:00 +5°C° 0.1 mm 8 mps 752 mmHg 58%
10:00 +6°C° 0.1 mm 9 mps 752 mmHg 52%
11:00 +6°C° 0.1 mm 9 mps 752 mmHg 47%
12:00 +7°C° 0.1 mm 9 mps 753 mmHg 41%
13:00 +7°C° 0.1 mm 10 mps 753 mmHg 36%
14:00 +7°C° 0 mm 9 mps 753 mmHg 39%
15:00 +7°C° 0 mm 9 mps 754 mmHg 42%
16:00 +6°C° 0 mm 8 mps 754 mmHg 45%
17:00 +5°C° 0 mm 7 mps 754 mmHg 47%
18:00 +4°C° 0 mm 6 mps 754 mmHg 50%
19:00 +3°C° 0 mm 5 mps 755 mmHg 53%
20:00 +2°C° 0 mm 5 mps 755 mmHg 57%
21:00 +1°C° 0 mm 4 mps 755 mmHg 61%
22:00 +1°C° 0 mm 3 mps 755 mmHg 65%
23:00 +1°C° 0 mm 3 mps 756 mmHg 68%

Tomorrow, 23 April, Friday

Time Temperature Precipitation Wind Pressure Humidity
00:00 0°C° 0 mm 4 mps 756 mmHg 70%
01:00 0°C° 0 mm 4 mps 756 mmHg 73%
02:00 -1°C° 0 mm 4 mps 756 mmHg 80%
03:00 0°C° 0 mm 3 mps 756 mmHg 87%
04:00 -1°C° 0 mm 3 mps 756 mmHg 94%
05:00 -1°C° 0 mm 4 mps 756 mmHg 91%
06:00 0°C° 0 mm 5 mps 756 mmHg 89%
07:00 +1°C° 0 mm 6 mps 756 mmHg 86%
08:00 +2°C° 0.1 mm 6 mps 756 mmHg 78%
09:00 +3°C° 0.1 mm 6 mps 757 mmHg 71%
10:00 +4°C° 0.1 mm 6 mps 757 mmHg 63%
11:00 +5°C° 0 mm 7 mps 757 mmHg 53%
12:00 +6°C° 0 mm 8 mps 758 mmHg 42%
13:00 +7°C° 0 mm 8 mps 758 mmHg 32%
14:00 +7°C° 0 mm 8 mps 758 mmHg 34%
15:00 +8°C° 0 mm 7 mps 759 mmHg 36%
16:00 +6°C° 0 mm 7 mps 759 mmHg 38%
17:00 +6°C° 0 mm 5 mps 759 mmHg 46%
18:00 +5°C° 0 mm 4 mps 759 mmHg 54%
19:00 +4°C° 0 mm 3 mps 759 mmHg 62%
20:00 +3°C° 0 mm 3 mps 759 mmHg 67%
21:00 +2°C° 0 mm 3 mps 760 mmHg 71%
22:00 +1°C° 0 mm 3 mps 760 mmHg 75%
23:00 0°C° 0 mm 3 mps 760 mmHg 76%

Day after tomorrow, 24 April, Saturday

Time Temperature Precipitation Wind Pressure Humidity
00:00 0°C° 0 mm 3 mps 760 mmHg 77%
01:00 0°C° 0 mm 3 mps 760 mmHg 78%
02:00 +1°C° 0 mm 2 mps 760 mmHg 78%
03:00 -1°C° 0 mm 2 mps 760 mmHg 78%
04:00 -1°C° 0 mm 2 mps 760 mmHg 78%
05:00 +2°C° 0 mm 2 mps 760 mmHg 72%
06:00 +3°C° 0 mm 2 mps 760 mmHg 66%
07:00 +4°C° 0 mm 2 mps 760 mmHg 60%
08:00 +5°C° 0 mm 3 mps 760 mmHg 53%
09:00 +7°C° 0 mm 3 mps 759 mmHg 46%
10:00 +9°C° 0 mm 3 mps 759 mmHg 39%
11:00 +8°C° 0 mm 4 mps 759 mmHg 42%
12:00 +8°C° 0 mm 4 mps 759 mmHg 45%
13:00 +8°C° 0 mm 5 mps 759 mmHg 48%
14:00 +8°C° 0 mm 5 mps 759 mmHg 48%
15:00 +7°C° 0 mm 5 mps 759 mmHg 48%
16:00 +7°C° 0 mm 5 mps 759 mmHg 48%
17:00 +6°C° 0 mm 5 mps 759 mmHg 52%
18:00 +4°C° 0 mm 4 mps 760 mmHg 56%
19:00 +3°C° 0 mm 3 mps 760 mmHg 61%
20:00 +2°C° 0 mm 3 mps 760 mmHg 66%
21:00 +1°C° 0 mm 3 mps 761 mmHg 72%
22:00 +1°C° 0 mm 2 mps 761 mmHg 77%
23:00 +1°C° 0 mm 2 mps 761 mmHg 79%

25 April, Sunday

Time Temperature Precipitation Wind Pressure Humidity
00:00 -1°C° 0 mm 2 mps 761 mmHg 81%
01:00 -1°C° 0 mm 2 mps 761 mmHg 83%
02:00 -1°C° 0 mm 2 mps 761 mmHg 85%
03:00 -1°C° 0 mm 2 mps 761 mmHg 87%
04:00 -1°C° 0 mm 2 mps 761 mmHg 88%
05:00 0°C° 0 mm 3 mps 761 mmHg 79%
06:00 +2°C° 0 mm 3 mps 761 mmHg 70%
07:00 +4°C° 0 mm 3 mps 761 mmHg 61%
08:00 +5°C° 0 mm 4 mps 761 mmHg 54%
09:00 +6°C° 0 mm 4 mps 761 mmHg 47%
10:00 +8°C° 0 mm 5 mps 761 mmHg 40%
11:00 +8°C° 0 mm 5 mps 761 mmHg 39%
12:00 +8°C° 0 mm 5 mps 761 mmHg 38%
13:00 +9°C° 0 mm 5 mps 760 mmHg 38%
14:00 +10°C° 0 mm 4 mps 760 mmHg 38%
15:00 +10°C° 0 mm 4 mps 760 mmHg 38%
16:00 +10°C° 0 mm 4 mps 759 mmHg 38%
17:00 +8°C° 0 mm 3 mps 759 mmHg 46%
18:00 +7°C° 0 mm 2 mps 759 mmHg 54%
19:00 +6°C° 0 mm 1 mps 758 mmHg 61%
20:00 +5°C° 0 mm 1 mps 758 mmHg 63%
21:00 +4°C° 0 mm 1 mps 758 mmHg 64%
22:00 +4°C° 0 mm 1 mps 757 mmHg 65%
23:00 +4°C° 0 mm 1 mps 757 mmHg 65%

26 April, Monday

Time Temperature Precipitation Wind Pressure Humidity
00:00 +4°C° 0 mm 1 mps 757 mmHg 64%
01:00 +5°C° 0 mm 1 mps 756 mmHg 64%
02:00 +3°C° 0 mm 2 mps 756 mmHg 66%
03:00 +3°C° 0 mm 2 mps 756 mmHg 68%
04:00 +3°C° 0 mm 2 mps 755 mmHg 70%
05:00 +4°C° 0 mm 2 mps 755 mmHg 70%
06:00 +5°C° 0 mm 2 mps 755 mmHg 69%
07:00 +6°C° 0 mm 2 mps 755 mmHg 69%
08:00 +7°C° 0 mm 2 mps 755 mmHg 62%
09:00 +8°C° 0 mm 2 mps 755 mmHg 55%
10:00 +10°C° 0 mm 2 mps 755 mmHg 49%
11:00 +10°C° 0 mm 3 mps 755 mmHg 45%
12:00 +11°C° 0 mm 3 mps 755 mmHg 41%
13:00 +11°C° 0 mm 3 mps 754 mmHg 37%
14:00 +11°C° 0 mm 3 mps 754 mmHg 37%
15:00 +11°C° 0 mm 3 mps 754 mmHg 37%
16:00 +11°C° 0 mm 4 mps 754 mmHg 37%
17:00 +9°C° 0 mm 3 mps 754 mmHg 43%
18:00 +8°C° 0 mm 3 mps 754 mmHg 49%
19:00 +5°C° 0 mm 3 mps 753 mmHg 56%
20:00 +4°C° 0 mm 3 mps 753 mmHg 57%
21:00 +3°C° 0 mm 4 mps 753 mmHg 59%
22:00 +1°C° 0 mm 4 mps 753 mmHg 60%
23:00 +1°C° 0 mm 4 mps 753 mmHg 64%

27 April, Tuesday

Time Temperature Precipitation Wind Pressure Humidity
00:00 +1°C° 0 mm 4 mps 753 mmHg 68%
01:00 +1°C° 0 mm 4 mps 753 mmHg 72%
02:00 +1°C° 0 mm 4 mps 752 mmHg 72%
03:00 0°C° 0 mm 4 mps 752 mmHg 72%
04:00 0°C° 0 mm 4 mps 751 mmHg 72%
05:00 +1°C° 0 mm 5 mps 751 mmHg 68%
06:00 +2°C° 0 mm 5 mps 751 mmHg 65%
07:00 +3°C° 0 mm 5 mps 750 mmHg 61%
08:00 +4°C° 0 mm 6 mps 750 mmHg 55%
09:00 +6°C° 0 mm 7 mps 749 mmHg 50%
10:00 +8°C° 0 mm 7 mps 748 mmHg 44%
11:00 +9°C° 0 mm 7 mps 748 mmHg 44%
12:00 +10°C° 0 mm 8 mps 747 mmHg 44%
13:00 +10°C° 0 mm 8 mps 746 mmHg 43%
14:00 +9°C° 0.3 mm 7 mps 745 mmHg 53%
15:00 +8°C° 0.3 mm 7 mps 745 mmHg 63%
16:00 +7°C° 0.3 mm 6 mps 744 mmHg 73%
17:00 +7°C° 0.4 mm 6 mps 744 mmHg 78%
18:00 +7°C° 0.4 mm 6 mps 743 mmHg 83%
19:00 +7°C° 0.4 mm 6 mps 742 mmHg 88%
20:00 +7°C° 0.1 mm 5 mps 742 mmHg 90%
21:00 +7°C° 0.1 mm 5 mps 742 mmHg 92%
22:00 +7°C° 0.1 mm 5 mps 741 mmHg 94%
23:00 +7°C° 0 mm 5 mps 741 mmHg 94%
Show more